Regional Weather Roundup
Issued by NWS Wakefield, VA

Home | Current Version | Previous Version | Text Only | Print | Product List | Glossary On
Versions: 1 2 3 4 5 6 7 8 9 10 11 12 13 14 15 16 17 18 19 20 21 22 23 24 25 26
000
ASUS41 KAKQ 262315
RWRAKQ

REGIONAL WEATHER ROUNDUP
NATIONAL WEATHER SERVICE WAKEFIELD VA
700 PM EDT THU MAY 26 2016

Note: "fair" indicates few or no clouds below 12,000 feet with no
significant weather and/or obstructions to visibility. * = Denotes
station may not report precipitation (e.g., rain,snow,etc.),
thunder or fog.

VAZ042-051-052>054-056-270000-
NORTHERN VIRGINIA

CITY           SKY/WX    TMP DP  RH WIND       PRES   REMARKS
WASH NATIONAL  FAIR      80  65  59 S9        30.01R
DULLES         PTSUNNY   85  62  46 S9        30.01S
FORT BELVOIR   FAIR      85  66  52 VRB5      30.01R
QUANTICO       FAIR      81  67  62 S7        30.02R
FREDERICKSBRG* NOT AVBL
STAFFORD*      FAIR      85  61  43 SW6       30.06R
WARRENTON      FAIR      85  58  39 S5        30.01S
CULPEPER*      FAIR      86  65  48 S3        30.02S
MANASSAS*      MOSUNNY   84  64  51 S5        30.01S
LEESBURG*      FAIR      88  68  51 S6G21     30.02R
WINCHESTER     FAIR      81  63  54 CALM      30.03R
FRONT ROYAL*   FAIR      82  66  57 CALM      30.01R
LURAY*         FAIR      81  61  50 SW6       30.03R
$$

VAZ048-049-060>072-079>083-270000-
CENTRAL AND SOUTH CENTRAL VIRGINIA

CITY           SKY/WX    TMP DP  RH WIND       PRES   REMARKS
RICHMOND       FAIR      85  62  46 S8        30.03S
CHESTERFIELD*  FAIR      84  57  39 S8        30.05S
PETERSBURG*    FAIR      86  61  42 S5        30.05S
HANOVER        FAIR      87  59  38 S8        30.04S
TAPPAHANNOCK*  FAIR      87  56  35 S6        30.04S
QUINTON*       FAIR      87  61  42 CALM      30.02F
CHARLOTTSVILLE FAIR      84  63  49 S10       30.03S
GORDONSVILLE*  FAIR      85  65  51 S3        30.02S
ORANGE*        FAIR      84  63  48 SW6       30.04S
LOUISA*        FAIR      88  66  48 CALM      30.03R
BUMPASS*       FAIR      85  65  51 CALM      30.03S
FARMVILLE*     NOT AVBL
CREWE*         FAIR      85  67  53 CALM      30.04S
FORT PICKETT*  NOT AVBL
CHASE CITY*    FAIR      85  63  47 CALM      30.06S
CLARKSVILLE*   FAIR      82  64  54 S6        30.05S
SOUTH HILL*    FAIR      83  67  57 S5        30.11S
LAWRENCEVILLE* FAIR      84  65  52 S3        30.05S
EMPORIA*       FAIR      84  61  45 S3        30.06F
$$

VAZ088>098-270000-
SOUTHEAST VIRGINIA

CITY           SKY/WX    TMP DP  RH WIND       PRES   REMARKS
NORFOLK        FAIR      84  63  49 S3        30.05F
VIRGINIA BEACH FAIR      85  63  47 S14       30.06S
NORFOLK NAVAL  FAIR      86  60  41 E5        30.06F
WEST POINT*    FAIR      85  58  39 S6        30.05S
SALUDA*        FAIR      84  66  53 S5        30.04S
NEWPORT NEWS   FAIR      85  63  47 S8        30.05S
LANGLEY AFB    FAIR      86  62  44 SE8       30.05S
FORT EUSTIS    FAIR      85  70  60 S5        30.03F
WILLIAMSBURG*  FAIR      88  64  45 CALM      30.05S
HR EXEC AP*    FAIR      86  63  45 SW5       30.07F
FRANKLIN*      FAIR      85  60  41 S8        30.05F
US460-WAKEFLD  FAIR      86  60  41 S3        30.05S
$$

VAZ020-022-025-037-045-270000-
WEST CENTRAL AND SOUTHWEST VIRGINIA

CITY           SKY/WX    TMP DP  RH WIND       PRES   REMARKS
STAUNTON*      PTSUNNY   76  61  60 W7        30.09R
WAYNESBORO*    FAIR      77  60  54 SW9       30.09R
HOT SPRINGS VA FAIR      69  59  70 W14       30.19S
LYNCHBURG      FAIR      78  63  59 NW6       30.09R
DANVILLE       FAIR      82  65  56 S6        30.07R
SOUTH BOSTON*  FAIR      84  63  49 SW3       30.06R
MARTINSVILLE   PTSUNNY   75  64  68 NW7       30.11R
ROANOKE        PTSUNNY   77  66  68 E8        30.10F
BLACKSBURG     PTSUNNY   77  63  60 CALM      30.16S
DUBLIN*        PTSUNNY   77  63  62 S9        30.15S
MARION*        CLOUDY    73  62  68 W8        30.18F
HILLSVILLE*    PTSUNNY   72  64  77 CALM      30.16F
RICHLANDS*     FAIR      73  55  53 W7        30.17F
WISE*          FAIR      73  54  49 SW6       30.18F
ABINGDON*      FAIR      76  63  65 NW6       30.15F
$$

MDZ021>025-VAZ099-100-270000-
SOUTHERN MARYLAND AND THE DELMARVA PENINSULA

CITY           SKY/WX    TMP DP  RH WIND       PRES   REMARKS
PATUXENT RIVER MOSUNNY   80  66  62 SE5       30.02S
BAY BRIDGE APT SUNNY     84  64  51 S12       30.01S
LEONARDTOWN    SUNNY     86  61  42 SE5       30.04S
DOVER          SUNNY     77  70  79 E7        30.02S
GEORGETOWN     SUNNY     85  60  42 S8        30.04S
EASTON         SUNNY     86  70  58 S9        30.06F
CAMBRIDGE      SUNNY     81  63  54 S7        30.03S
SALISBURY      SUNNY     85  59  41 S9        30.04S
OCEAN CITY     SUNNY     72  65  78 S7        30.07S
WALLOPS ISLAND FAIR      74  65  73 S18       30.08S
ACCOMACK*      FAIR      79  63  57 S14       30.07S
$$

NCZ012>017-030>032-270000-
NORTH CENTRAL AND EASTERN NORTH CAROLINA

CITY           SKY/WX    TMP DP  RH WIND       PRES   REMARKS
ROANOKE RAPIDS FAIR      86  63  45 S3        30.06S
RALEIGH        MOSUNNY   86  62  44 SW7       30.07F
ELIZABETH CITY SUNNY     81  65  58 S14G22    30.09S
AHOSKIE*       SUNNY     83  62  48 S5        30.06F
EDENTON*       SUNNY     82  66  57 S14G21    30.09S
CURRITUCK*     SUNNY     84  64  50 S6        30.09S
KILL DEVIL HLS MOSUNNY   79  66  64 S7        30.11S
MANTEO         NOT AVBL
CAPE HATTERAS  SUNNY     75  67  76 SW8       30.15F
TARBORO*       FAIR      87  61  41 S3        30.07S
GOLDSBORO      MOSUNNY   87  62  43 S8        30.06F
WASHINGTON     SUNNY     81  65  58 S13G18    30.09S
GREENVILLE     SUNNY     86  63  45 S7        30.08F
NEW BERN       SUNNY     79  62  56 S12       30.12F
WILMINGTON     SUNNY     79  61  53 S10       30.12F
$$

VAZ048-270000-
ELSEWHERE

CITY           SKY/WX    TMP DP  RH WIND       PRES   REMARKS
HARRISBURG PA  CLOUDY    79  63  57 SW5       30.00R
BALTIMORE      MOSUNNY   84  65  52 SE6       30.00S
ANNAPOLIS      SUNNY     78  65  63 S12       30.01S
ANDREWS AFB    FAIR      85  63  46 S9        30.01S
PHILADELPHIA   MOSUNNY   86  56  35 S12       30.02F
HENDERSON NC   SUNNY     82  62  50 S6        30.07S
GREENSBORO     MOSUNNY   83  59  44 SW9       30.08S
ROCKY MOUNT    SUNNY     85  62  46 S5        30.06F
$$

VAZ100-270000-
MARINE

STATION/POSITION TIME  TEMP    WIND        PRES    WAVE   SWELL
                       AIR SEA DIR/SP/G            HT/PER HT/PER
                 (UTC) (F)     (DEG/KT/KT) (MB)    (FT/S) (FT/S)
BRANDYWINE LGT   2200          150/ 14/ 15 1017.3F
CAPE MAY NJ      2200      67  140/ 10/ 13 1017.3F
LEWES DE         2200      62  170/  5/  7 1017.0F
15NM E FENWICK I 2250   65 59              1018.2F   2/ 7
OCEAN-CITY-INLET 2200      67  210/ 13/ 15 1018.6F
WACHAPREAGUE VA  2200      81  200/ 14/ 17 1018.0F
THOMAS POINT MD  2300   75 66  170/ 14/ 14 1017.6F
GOOSES REEF MD   2300   71 67  160/ 10/ 12 1017.7S   1/ 3
COVE POINT MD    2200          190/ 13/ 16 1017.3F
SOLOMONS ISLAND  2200      69  130/ 12/ 12   N/A
BISHOPS HEAD MD  2200      76  150/ 10/ 11 1017.4F
PINEY POINT MD   2200          180/  4/  5   N/A
POTOMAC MD       2300   77 71  190/ 12/ 14 1016.0F   1/ 2
CAMBRIDGE MD     2200      65  180/  9/ 13 1016.1F
LEWISETTA VA     2200      74  210/ 10/ 12 1016.5F
RAPPAHANNOCK LGT 2200          150/ 15/ 16 1018.4F
STINGRAY PT      2300   73 68  190/ 10/ 12 1017.9S   1/ 3
YORK RVR RNG VA  2200          140/ 14/ 15 1017.0F
YORKTOWN VA      2200      70  200/  4/  6 1017.3F
JAMESTOWN VA     2300   85 74  180/  4/  6   N/A     0
DOMINION TERM VA 2200          220/  6/  7 1017.9F
KIPTOPEKE VA     2200      69  160/ 12/ 16   N/A
CHES BAY BRIDGE  2200      68  110/  7/  9 1018.0F
CAPE HENRY VA    2200          140/  8/  9   N/A
CHESAPEAKE LGHT  2200   71     170/ 25/ 26 1018.5F
WILLOUBY STN VA  2200          230/  7/  8 1018.9F
CAPE HENRY BUOY  2212      63                N/A     3/ 3
1ST LANDING BUOY 2300   72 69  120/ 10/ 12 1017.9F   1/ 3
CAPE CHARLES BUO 2226      65                N/A     2/ 4   2/ 8
OFFSHORE WE BUOY 2221      62                N/A     3/ 3   2/ 8
64NM E OF VA BCH 2250   65 59  180/ 12/ 14 1019.7F   2/ 8   2/ 8
DUCK PIER NC     2200      66  170/ 16/ 19 1018.7F
44100 DUCK FRF   2224      68                N/A     2/ 8
44056 DUCK FRF   2211      68                N/A     2/ 8
OREGON INLET NC  2200      77  190/ 18/ 20 1020.4F
HATTERAS NC      2200      73  190/  5/ 11 1020.6F
DIAMOND SHLS NC  2250   76 73  210/  6/  8 1021.2F   2/ 8   2/ 8
CAPE C1F1C2F2C3F3C4F4C5F5C6F6C7F7C8M1C9!



USA.gov is the U.S. government's official web portal to all federal, state and local government web resources and services.